This demonstration page uses our WeatherBlox Daily Observations layout. Learn more.

Left ArrowRight Arrow

30.21309, -93.2044

Hourly Observations for July 18, 2019

Temp ( °F °C ) Dew Point ( °F °C ) Humidity (%) Winds ( mph kmh ) Pressure ( in mb ) Visibility ( mi km ) Precip ( " mm )
12:15 am 00:15 Clear 78 25.5 77 25 97 97 ESE 3 6 30.06 1018 10 16 0.00 0.00
12:35 am 00:35 Clear 78 25.5 77 25 97 97 E 8 13 30.06 1018 10 16 0.00 0.00
12:55 am 00:55 Clear 78 25.6 77 25 97 97 SE 3 6 30.06 1018 10 16 0.00 0.00
1:15 am 01:15 Clear 77 25 76 24.6 98 98 E 3 6 30.06 1018 10 16 0.00 0.00
1:35 am 01:35 Clear 77 25 76 24.5 97 97 E 3 6 30.06 1018 7 11 0.00 0.00
1:55 am 01:55 Clear 77 24.8 76 24.5 98 98 ESE 3 6 30.06 1018 7 11 0.00 0.00
2:15 am 02:15 Clear 76 24.7 76 24.5 99 99 E 3 6 30.06 1018 7 11 0.00 0.00
2:35 am 02:35 Clear 77 24.8 76 24.5 98 98 Calm 30.06 1018 7 11 0.00 0.00
2:55 am 02:55 Clear with Mist and Fog 77 24.8 76 24.5 98 98 Calm 30.06 1018 5 8 0.00 0.00
3:15 am 03:15 Clear with Mist and Fog 76 24.5 76 24.3 99 99 E 5 7 30.06 1018 5 8 0.00 0.00
3:35 am 03:35 Clear with Mist and Fog 76 24.5 76 24.2 98 98 ESE 5 7 30.05 1018 5 8 0.00 0.00
3:55 am 03:55 Clear with Mist and Fog 76 24.7 76 24.5 99 99 ESE 5 7 30.05 1018 5 8 0.00 0.00
4:15 am 04:15 Clear with Mist and Fog 76 24.5 76 24.4 99 99 ESE 3 6 30.05 1018 5 8 0.00 0.00
4:35 am 04:35 Clear with Mist and Fog 76 24.5 76 24.3 99 99 Calm 30.05 1018 5 8 0.00 0.00
4:55 am 04:55 Partly Cloudy with Mist and Fog 77 24.9 76 24.7 99 99 Calm 30.05 1018 5 8 0.00 0.00
5:15 am 05:15 Partly Cloudy with Mist and Fog 76 24.5 76 24.3 99 99 SE 3 6 30.06 1018 3 4 0.00 0.00
5:35 am 05:35 Clear with Mist and Fog 76 24.4 75 24.1 98 98 SE 5 7 30.06 1018 2 3 0.00 0.00
6:00 am 06:00 Clear 75 24 75 24 100 100 Calm 30.06 1018 10 16 0.00 0.00
6:50 am 06:50 Sunny 77 25 77 25 100 100 Calm 30.07 1018 10 16 0.00 0.00
7:50 am 07:50 Sunny 81 27 79 26 94 94 Calm 30.07 1018 10 16 0.00 0.00
8:50 am 08:50 Sunny 84 29 79 26 84 84 SSW 6 9 30.07 1018 10 16 0.00 0.00
9:50 am 09:50 Partly Cloudy 86 30 77 25 75 75 SSW 6 9 30.07 1018 10 16 0.00 0.00
11:50 am 11:50 Partly Cloudy 90 32 73 23 59 59 SSW 5 7 30.08 1019 10 16 0.00 0.00
12:50 pm 12:50 Partly Cloudy 90 32 75 24 63 63 SSE 7 11 30.07 1018 10 16 0.00 0.00
3:55 pm 15:55 Partly Cloudy 91 33 75 24 59 59 S 10 17 30.02 1017 10 16 0.00 0.00
5:50 pm 17:50 Partly Cloudy 90 32 75 24 63 63 SSW 13 20 30.00 1016 10 16 0.00 0.00
6:50 pm 18:50 Mostly Sunny 88 31 73 23 62 62 SSW 9 15 29.99 1016 10 16 0.00 0.00
7:55 pm 19:55 Mostly Sunny 86 30 77 25 75 75 S 9 15 30.00 1016 10 16 0.00 0.00
8:55 pm 20:55 Mostly Clear 82 28 77 25 84 84 S 5 7 30.00 1016 10 16 0.00 0.00
9:50 pm 21:50 Mostly Clear 81 27 77 25 89 89 ESE 8 13 30.02 1017 10 16 0.00 0.00
10:15 pm 22:15 Clear 78 25.8 76 24.7 94 94 ESE 8 13 30.02 1017 10 16 0.00 0.00
10:35 pm 22:35 Clear 80 26.5 77 25 92 92 SE 7 11 30.02 1017 10 16 0.00 0.00
10:55 pm 22:55 Clear 80 26.5 77 24.9 91 91 ESE 7 11 30.02 1017 10 16 0.00 0.00
11:15 pm 23:15 Clear 79 26 77 24.8 93 93 ESE 7 11 30.02 1017 10 16 0.00 0.00
11:35 pm 23:35 Partly Cloudy 78 25.7 76 24.7 94 94 E 8 13 30.03 1017 10 16 0.00 0.00
11:55 pm 23:55 Mostly Cloudy 79 26.1 77 25 94 94 E 8 13 30.03 1017 10 16 0.00 0.00

Powered by AerisWeather